Flag for South Korea Weather past 2 weeks in Busan, South Korea

Now
68 °F

Scattered clouds.


Feels Like: 68 °F
Forecast: 69 / 77 °F
Wind: 3 mph from Northeast

Location: Pusan / Kimhae International Airport

Current Time: Sep 21, 2014 at 9:20:51 AM

Latest Report: Sep 21, 2014 at 9:00 AM


Visibility: N/A

Pressure: 30.07 "Hg

Humidity: 69%

Dew point: 57 °F

Location of BusanLocation

Historic Weather in Busan — Graph

°F

Busan temperature yesterday

Maximum temperature yesterday: 81 °F (at 1:00 PM)
Minimum temperature yesterday: 59 °F (at 5:00 AM)
Average temperature yesterday: 70 °F

Past Weeks' High & Low Weather Summary

 TemperatureHumidityPressure
High86 °F (Sep 7, 1:00 PM)94% (Sep 6, 8:00 AM)30.07 "Hg (Sep 6, 8:00 AM)
Low59 °F (Sep 20, 5:00 AM)30% (Sep 20, 2:00 PM)29.68 "Hg (Sep 8, 3:00 PM)
Average72 °F71%29.90 "Hg
* Reported Sep 6 8:00 AM — Sep 21 8:00 AM, Busan, Weather by CustomWeather, © 2014

Note: Actual official high and low records may vary slightly from our data, if they occured in-between our weather recording intervals... More about our weather records

Advertising

Busan weather history for previous 24 hours

 ConditionsComfort  
Time TempWeatherWind HumidityBarometerVisibility
8:00 AM
Sep 21
64 °FPassing clouds.2 mph78%30.07 "HgN/A
7:00 AM61 °FPassing clouds.2 mph83%30.04 "HgN/A
6:00 AM59 °FPassing clouds.2 mph88%30.01 "HgN/A
5:00 AM59 °FClear.5 mph88%30.01 "Hg10 mi
4:00 AM61 °FClear.1 mph83%30.01 "HgN/A
3:00 AM61 °FPassing clouds.2 mph83%30.01 "HgN/A
2:00 AM61 °FPassing clouds.5 mph83%30.00 "HgN/A
10:00 PM
Sep 20
68 °FPassing clouds.8 mph69%29.98 "HgN/A
9:00 PM70 °FPassing clouds.8 mph60%30.01 "HgN/A
8:00 PM70 °FPassing clouds.8 mph60%29.98 "HgN/A
7:00 PM72 °FPassing clouds.9 mph57%29.95 "HgN/A
6:00 PM75 °FPassing clouds.9 mph50%29.95 "HgN/A
5:00 PM77 °FPassing clouds.12 mph44%29.92 "HgN/A
4:00 PM79 °FPassing clouds.12 mph37%29.92 "HgN/A
3:00 PM79 °FSunny.13 mph34%29.89 "Hg10 mi
2:00 PM81 °FSunny.10 mph30%29.89 "Hg10 mi
1:00 PM81 °FSunny.12 mph32%29.92 "Hg10 mi
12:00 PM79 °FPassing clouds.9 mph39%29.92 "HgN/A
11:00 AM77 °FPassing clouds.8 mph47%29.95 "HgN/A
10:00 AM75 °FPassing clouds.6 mph61%29.95 "HgN/A
9:00 AM70 °FPassing clouds.3 mph69%29.95 "HgN/A
Weather by CustomWeather, © 2014

See weather overviewHow to use our weather pages